Location: Unspecified
(43.8044°N, 11.0278°E)
Time: 16:40:54
(UTC+02:00)

Cosmos 2058 - Visible Passes

Search period start: 21 April 2015 00:00
Search period end: 01 May 2015 00:00
Orbit: 566 x 590 km, 82.5° (Epoch: 21 April)

Date Brightness Start Highest point End Pass type
(mag) Time Alt. Az. Time Alt. Az. Time Alt. Az.
23 Apr 6.1 05:14:53 10° ESE 05:16:34 13° E 05:18:27 10° ENE visible
24 Apr 5.8 05:18:24 10° SE 05:21:01 17° E 05:23:47 10° NE visible
25 Apr 5.5 05:22:17 10° SE 05:25:29 23° E 05:28:46 10° NE visible
26 Apr 4.9 05:26:20 10° SSE 05:29:56 31° E 05:33:36 10° NNE visible
27 Apr 4.3 05:30:33 10° SSE 05:34:25 42° E 05:38:20 10° NNE visible
28 Apr 3.6 05:34:52 10° S 05:38:54 59° E 05:42:58 10° NNE visible
29 Apr 3.0 05:39:17 10° S 05:43:23 83° E 05:47:32 10° N visible
